Lid_Strength_Index
2 1 1 2 2 2 3 3 3 4 4 4 4 4 4 4 4 4 4 3 3 3 3 3 2 1 5 10 8 5 -2 -1 3 7 8 8 8 8 9 8 6 7 6 5 5 5 6
2 2 2 2 2 3 3 3 3 3 4 4 4 4 4 4 4 4 4 4 4 4 3 3 2 1 6 12 7 4 3 3 6 7 8 8 7 7 8 7 7 7 7 6 6 6 6
2 2 2 3 3 3 3 3 3 4 4 4 4 4 4 4 4 4 4 4 4 4 3 3 2 1 6 10 5 5 6 7 6 7 8 6 6 7 7 8 6 6 8 7 6 6 7
2 2 2 3 3 3 3 3 3 3 4 4 4 4 4 4 4 4 4 4 4 3 3 2 1 4 9 5 4 3 7 7 6 7 8 7 6 8 8 8 7 8 8 11 7 6 6
2 2 3 3 3 3 3 3 3 4 4 4 4 4 4 4 4 4 4 4 4 2 2 1 6 7 9 2 5 5 5 6 7 8 8 5 7 9 9 10 11 9 13 11 8 6 7
2 2 2 2 3 3 3 3 3 3 3 4 4 4 4 4 4 5 5 4 4 3 2 1 2 8 7 7 5 6 6 6 8 9 7 8 9 11 12 12 14 13 12 11 11 8 7
2 2 2 2 3 3 3 3 3 3 3 4 4 4 4 4 4 5 6 7 7 8 5 8 10 8 7 6 5 6 7 8 9 9 12 10 10 12 11 10 10 10 11 11 9 7 8
2 2 2 2 2 3 3 3 3 3 3 4 4 4 4 4 5 5 7 8 6 7 9 6 5 6 5 5 6 6 9 10 11 12 11 12 12 9 8 8 10 11 11 11 9 8 8
1 2 2 2 2 3 3 3 3 4 4 4 4 4 4 5 5 7 7 7 5 6 10 7 6 6 5 4 6 6 8 10 11 13 12 13 11 8 9 9 11 12 13 11 10 8 8
1 2 2 2 3 3 3 3 3 4 4 4 4 4 5 5 7 8 7 6 5 6 11 9 8 7 5 5 8 5 7 8 11 11 11 11 9 8 10 10 10 14 9 9 10 11 14
2 2 2 2 2 3 3 3 3 4 4 4 4 4 5 5 9 8 6 5 6 7 16 7 8 5 7 7 9 9 7 8 10 10 11 11 11 11 11 10 9 10 9 11 11 11 13
1 2 2 2 2 3 3 3 3 4 4 4 4 5 5 7 9 7 6 7 7 12 15 9 8 9 9 10 8 7 8 8 9 10 11 11 10 11 11 10 9 9 11 13 14 14 15
1 1 2 2 2 3 3 3 3 4 4 5 5 6 6 6 10 7 7 8 13 15 9 10 11 10 11 11 9 8 10 11 12 14 14 11 12 11 10 13 12 12 15 18 17 18 17
1 1 2 3 3 3 3 3 4 4 5 5 6 7 7 6 7 6 7 10 16 10 10 9 10 10 10 10 11 11 11 12 12 12 15 15 14 11 10 11 12 14 14 16 18 18 16
1 1 1 2 3 3 3 4 4 5 5 6 7 8 8 7 6 7 9 13 13 11 8 10 11 12 12 10 11 12 12 12 11 11 13 16 14 10 10 10 10 14 15 13 16 18 17
2 1 1 2 3 3 3 3 4 5 5 6 9 8 6 6 6 7 11 13 11 8 8 9 12 11 13 13 12 13 13 11 11 10 12 13 15 13 10 10 11 12 12 15 16 18 18
2 2 1 1 2 3 3 3 4 5 6 7 9 7 5 6 7 9 13 13 9 7 8 10 11 12 12 11 13 13 12 11 9 11 11 12 14 12 12 13 13 13 15 16 15 16 18
2 2 2 1 2 2 2 3 4 6 7 9 11 9 6 7 11 13 13 11 9 8 8 9 10 10 11 11 12 13 12 11 9 11 11 11 14 15 13 12 11 13 14 15 16 17 17
2 2 2 2 2 2 2 3 4 6 7 10 12 10 5 8 13 13 11 9 8 8 8 9 9 9 10 11 12 11 10 7 8 9 10 11 15 16 13 12 12 14 14 16 16 16 17
2 2 2 2 1 1 2 3 4 6 6 10 10 10 8 9 11 11 12 11 9 7 8 8 8 8 10 11 11 11 9 7 7 8 5 8 15 14 15 14 12 12 11 14 14 15 17
2 2 3 3 2 1 1 2 4 5 6 9 9 9 10 11 10 10 11 11 10 10 8 8 9 8 10 12 10 11 9 8 8 5 10 12 14 14 14 12 10 11 11 10 12 13 14
3 2 2 2 2 1 2 2 4 5 6 9 10 11 10 11 10 12 11 12 10 8 9 9 10 8 8 11 11 12 10 10 11 9 12 12 13 11 13 10 10 10 10 10 11 11 12
4 3 2 2 2 2 1 2 3 5 7 11 10 9 10 12 11 11 11 11 9 8 8 7 7 8 9 9 7 8 9 8 8 9 10 10 13 13 14 12 12 13 11 12 11 11 11
3 4 3 2 2 2 2 2 3 4 6 9 10 9 11 12 10 9 9 9 9 8 9 7 7 8 7 6 7 8 9 10 10 11 11 12 13 14 14 14 16 12 9 9 11 10 10
3 4 4 3 2 1 1 2 3 4 5 9 9 9 10 13 10 10 10 9 9 9 8 8 7 7 7 8 10 11 11 10 11 10 11 11 13 14 14 15 13 11 10 10 11 12 9
3 3 4 3 3 2 1 1 2 4 5 8 9 8 9 12 13 8 10 10 11 11 9 8 6 7 8 10 11 14 15 13 12 11 12 11 12 13 14 15 16 11 9 7 8 13 8
2 3 3 4 3 2 2 1 2 3 4 7 9 9 9 11 10 10 11 10 9 10 11 9 8 8 8 11 12 13 13 10 13 13 12 12 12 13 14 14 12 9 8 7 14 12 8
1 2 3 4 4 3 2 2 1 3 4 7 8 7 8 10 9 8 8 10 9 10 11 9 9 9 9 11 12 12 13 11 12 11 12 13 14 14 13 15 16 7 8 11 9 8 7
1 1 2 3 4 4 2 2 2 3 4 6 9 5 5 8 8 7 6 6 7 7 9 10 9 10 9 10 11 11 13 11 12 14 10 13 11 12 11 12 9 8 8 7 6 7 7